This is the latest recevied weather packets stored in our database for station/object SP8AQK-13. If no packets are shown the sender has not sent any weather packets the latest 10 day(s).
| Time | Temp. | Humidity | Pressure | Rain* | Wind** | Luminosity | Snow |
|---|---|---|---|---|---|---|---|
| 1777608190 | 5° C | 64% | 1029.6 hPa | - | - | - | - |
| 1777606990 | 4.44° C | 69% | 1029.6 hPa | - | - | - | - |
| 1777605789 | 4.44° C | 72% | 1029.6 hPa | - | - | - | - |
| 1777604588 | 4.44° C | 71% | 1029.8 hPa | - | - | - | - |
| 1777603388 | 4.44° C | 69% | 1029.7 hPa | - | - | - | - |
| 1777602187 | 4.44° C | 70% | 1029.8 hPa | - | - | - | - |
| 1777600986 | 4.44° C | 69% | 1029.5 hPa | - | - | - | - |
| 1777599785 | 3.89° C | 72% | 1029.6 hPa | - | - | - | - |
| 1777598585 | 3.89° C | 68% | 1029.7 hPa | - | - | - | - |
| 1777597384 | 3.89° C | 69% | 1029.9 hPa | - | - | - | - |
| 1777596183 | 3.33° C | 68% | 1030 hPa | - | - | - | - |
| 1777594983 | 2.78° C | 65% | 1029.8 hPa | - | - | - | - |
| 1777593782 | 3.33° C | 68% | 1030 hPa | - | - | - | - |
| 1777592581 | 3.33° C | 67% | 1030 hPa | - | - | - | - |
| 1777591380 | 3.89° C | 63% | 1029.8 hPa | - | - | - | - |
| 1777590179 | 4.44° C | 64% | 1029.7 hPa | - | - | - | - |
| 1777588979 | 4.44° C | 62% | 1029.7 hPa | - | - | - | - |
| 1777587778 | 5° C | 58% | 1029.7 hPa | - | - | - | - |
| 1777586577 | 5° C | 60% | 1029.9 hPa | - | - | - | - |
| 1777585377 | 5° C | 60% | 1029.8 hPa | - | - | - | - |
| 1777584176 | 5° C | 58% | 1029.8 hPa | - | - | - | - |
| 1777582975 | 5° C | 56% | 1029.8 hPa | - | - | - | - |
| 1777581774 | 4.44° C | 57% | 1029.9 hPa | - | - | - | - |
| 1777580574 | 4.44° C | 58% | 1029.8 hPa | - | - | - | - |
| 1777579373 | 3.89° C | 57% | 1029.9 hPa | - | - | - | - |
* Rain since midnight (hover to see other rain measurements)
** Current wind speed in m/s (hover to see current wind gust speed)